Regional Weather Roundup
Issued by NWS Memphis, TN

Home | Current Version | Previous Version | Text Only | Print | Product List | Glossary On
Versions: 1 2 3 4 5 6 7 8 9 10 11 12 13 14 15 16 17 18 19 20 21 22 23 24 25 26 27 28 29 30 31 32 33 34 35 36 37 38 39 40 41 42 43 44 45 46 47 48 49 50
000
ASUS44 KMEG 280410
RWRMEG
MEMPHIS CWA HOURLY WEATHER ROUNDUP
NATIONAL WEATHER SERVICE MEMPHIS TN
1100 PM CDT THU APR 27 2017

...WEST TENNESSEE...

CITY           SKY/WX    TMP DP  RH WIND       PRES   REMARKS
MEMPHIS INTL   CLEAR     62  52  69 E8        29.80F
NWS MEMPHIS      N/A     59 N/A N/A MISG        N/A
JACKSON        CLOUDY    55  54  96 CALM      29.85F
SOMERVILLE     CLEAR     55  54  94 CALM      29.81F
BOLIVAR        CLEAR     54  52  94 CALM      29.83F
LEXINGTON      CLEAR     52  52 100 MISG      29.86F
SAVANNAH       CLEAR     54  54 100 CALM      29.85F
DYERSBURG      CLOUDY    57  53  86 E6        29.85F
UNION CITY     CLEAR     57  52  82 E6        29.86S
PARIS          CLEAR     52  50  93 CALM      29.88R
HUNTINGDON     CLEAR     55  54  94 CALM      29.86S


...EASTERN ARKANSAS...

CITY           SKY/WX    TMP DP  RH WIND       PRES   REMARKS
JONESBORO      CLEAR     54  52  93 NE5       29.81S
WEST MEMPHIS   CLEAR     58  54  86 CALM      29.80S
BATESVILLE     CLEAR     55  50  82 CALM      29.81S
NEWPORT        CLEAR     58  55  90 E7          N/A
WALNUT RIDGE   CLEAR     59  52  77 E8        29.82S
BLYTHEVILLE    PTCLDY    57  55  93 E5        29.83F
SEARCY         CLEAR     57  54  89 E5        29.81R
STUTTGART      CLEAR     61  48  63 SE7       29.80R
PINE BLUFF     CLEAR     59  55  87 SE7       29.79R
MONTICELLO     PTCLDY    59  54  83 E3        29.79S


...NORTH MISSISSIPPI...

CITY           SKY/WX    TMP DP  RH WIND       PRES   REMARKS
TUPELO         CLEAR     59  54  83 E3        29.84F
OXFORD         CLEAR     55  52  88 E6        29.83F
BATESVILLE     CLEAR     55  54  94 CALM      29.81F
TUNICA         CLEAR     55  54  94 SE6       29.81S
CLARKSDALE     CLEAR     61  59  94 CALM      29.80S
CORINTH        CLEAR     55  54  94 CALM      29.84F
GREENWOOD      CLEAR     58  55  90 CALM      29.82R
COLUMBUS       PTCLDY    56  55  98 CALM      29.84R
STARKVILLE     PTCLDY    55  54  94 CALM      29.85F
GOLDEN TRIANGL PTCLDY    59  52  77 CALM      29.81S


...SOUTHEAST MISSOURI...

CITY           SKY/WX    TMP DP  RH WIND       PRES   REMARKS
KENNETT        PTCLDY    61  55  82 E7        29.82F
MALDEN         CLOUDY    61  54  77 E3        29.85F
WEST PLAINS    PTCLDY    57  49  74 SE8       29.81F
POPLAR BLUFF   CLOUDY    58  54  86 E3        29.84F
CAPE GIRARDEAU PTCLDY    55  51  86 SE3       29.86S


...NORTHWEST ALABAMA...

CITY           SKY/WX    TMP DP  RH WIND       PRES   REMARKS
MUSCLE SHOALS  CLEAR     55  52  89 CALM      29.88S


...MIDDLE TENNESSEE...

CITY           SKY/WX    TMP DP  RH WIND       PRES   REMARKS
NASHVILLE      PTCLDY    56  52  86 CALM      29.89S
CLARKSVILLE    CLEAR     52  49  89 CALM      29.89R
COLUMBIA       CLEAR    N/A N/A N/A CALM      29.88R


...WESTERN KENTUCKY...

CITY           SKY/WX    TMP DP  RH WIND       PRES   REMARKS
PADUCAH        CLOUDY    52  49  89 SE3       29.87R
FORT CAMPBELL  PTCLDY    54  52  93 CALM      29.88S


...CENTRAL ARKANSAS...

CITY           SKY/WX    TMP DP  RH WIND       PRES   REMARKS
LITTLE ROCK    PTCLDY    59  55  87 SE7       29.79R


SKY/WX REPORTED AS FAIR MEANS FEW OR NO CLOUDS BELOW
12 THOUSAND FEET.




USA.gov is the U.S. government's official web portal to all federal, state and local government web resources and services.